Regional Weather Roundup
Issued by NWS

Home | Current Version | Previous Version | Text Only | Print | Product List | Glossary On
Versions: 1 2 3 4 5 6 7 8 9 10 11 12 13 14 15 16 17 18 19 20 21 22 23 24 25 26 27 28 29 30 31 32 33 34 35 36 37 38 39 40 41 42 43 44 45 46 47 48 49 50
000
ASUS42 KFFC 201210
RWRGA
WEATHER ROUNDUP FOR GEORGIA
NATIONAL WEATHER SERVICE PEACHTREE CITY GA
800 AM EDT FRI OCT 20 2017

NOTE: "FAIR" INDICATES FEW OR NO CLOUDS BELOW 12,000 FEET WITH NO
SIGNIFICANT WEATHER AND/OR OBSTRUCTIONS TO VISIBILITY.

* = USE WITH CAUTION. THE STATIONS MARKED WITH AN ASTERISK MAY NOT
REPORT WEATHER SUCH AS PRECIPITATION, FOG, OR THUNDER AND ARE NOT
QUALITY CONTROLLED BY NWS.

THE REMARK "TC" DENOTES TEMPERATURE READING IN DEGREES CELSIUS.

GAZ001>058-201300-
NORTH GEORGIA

CITY           SKY/WX    TMP DP  RH WIND       PRES   REMARKS
ATLANTA        FAIR      51  45  79 NW3       30.28R
6HR MIN TEMP:  49; 6HR MAX TEMP:  55;

ATHENS         FAIR      44  43  96 W3        30.27S
6HR MIN TEMP:  42; 6HR MAX TEMP:  47; 6HR PCP: TRACE;

CHAMBLEE       FAIR      42  41  96 CALM      30.29R FOG
6HR MIN TEMP:  41; 6HR MAX TEMP:  46;

PEACHTREE CITY FOG       43  42  97 CALM      30.29S VSB<1/4
6HR MIN TEMP:  42; 6HR MAX TEMP:  47;

ROME           FOG       40  40 100 CALM      30.30R VSB 1/2
6HR MIN TEMP:  40; 6HR MAX TEMP:  47;

WEST ATLANTA   FAIR      42  42 100 CALM      30.29R
6HR MIN TEMP:  42; 6HR MAX TEMP:  48;

GAINESVILLE    FAIR      48  46  93 CALM      30.30R
6HR MIN TEMP:  47; 6HR MAX TEMP:  51;

CARTERSVILLE   FOG       41  41 100 CALM      30.31R VSB 1/4
6HR MIN TEMP:  40; 6HR MAX TEMP:  44; 6HR PCP: TRACE;



CITY           SKY/WX    TMP DP  RH WIND       PRES   REMARKS
DALTON*        FAIR      39  39 100 CALM      30.32S
LAWRENCEVILLE* FAIR      43  43 100 CALM      30.29R
MARIETTA       PTCLDY    45  42  91 CALM      30.28S
KENNESAW*      FAIR      44  43  96 CALM      30.30R
CANTON*        FAIR      43  43 100 CALM      30.30S
$$

GAZ059>098-102>109-201300-
CENTRAL GEORGIA

CITY           SKY/WX    TMP DP  RH WIND       PRES   REMARKS
AUGUSTA-BUSH   FAIR      43  42  97 CALM      30.27R
6HR MIN TEMP:  43; 6HR MAX TEMP:  50;

AUGUSTA-DANIEL FAIR      54  45  71 CALM      30.27S
6HR MIN TEMP:  53; 6HR MAX TEMP:  59;

COLUMBUS       FAIR      50  46  86 CALM      30.26R
6HR MIN TEMP:  50; 6HR MAX TEMP:  57;

MACON          FAIR      42  42 100 W3        30.27R
6HR MIN TEMP:  42; 6HR MAX TEMP:  48;

ROBINS AFB     CLEAR     46  44  95 CALM      30.26S


CITY           SKY/WX    TMP DP  RH WIND       PRES   REMARKS
LAGRANGE*      FAIR      43  43  98 CALM      30.28S
SYLVANIA*      FAIR      48  48 100 CALM      30.26S
MILLEDGEVILLE* CLOUDY    48  48 100 NW3       30.28S
$$

GAZ099>101-110>166-201300-
SOUTH GEORGIA

CITY           SKY/WX    TMP DP  RH WIND       PRES   REMARKS
SAVANNAH       FAIR      54  54 100 N3        30.24R
6HR MIN TEMP:  54; 6HR MAX TEMP:  58;

VALDOSTA       FAIR      57  56  96 N5        30.22R
6HR MIN TEMP:  55; 6HR MAX TEMP:  60;

ALMA           FAIR      55  52  89 NW3       30.23R
6HR MIN TEMP:  53; 6HR MAX TEMP:  59;

ST SIMONS      FAIR      64  61  90 N8        30.20R
6HR MIN TEMP:  64; 6HR MAX TEMP:  70;

FT STEWART     FAIR      55  53  91 CALM      30.22R
ALBANY         FAIR      51  50  96 CALM      30.26R
HUNTER AFB     FAIR      60  55  84 N5        30.21R
MOODY AFB      FAIR      58  56  94 NE5       30.21S
BRUNSWICK      FAIR      61  55  82 N6        30.21S


CITY           SKY/WX    TMP DP  RH WIND       PRES   REMARKS
BAINBRIDGE*    FAIR      57  55  94 CALM      30.22S
MOULTRIE*      FAIR      59  55  88 NE3       30.23S
VIDALIA*       FAIR      52  50  93 CALM      30.25S
WAYCROSS*      FAIR      56  54  91 CALM      30.22S
DOUGLAS*       FAIR      54  54 100 NE3       30.24S
$$




USA.gov is the U.S. government's official web portal to all federal, state and local government web resources and services.